STARLINK-1726 (46362 NORAD) Tracking and Keplerian Element Data

This shows tracking and keplerian element data for the satellite.

Feedback or suggestion? Click here.




ElementValue
Catalog46362
NameSTARLINK-1726
Epoch Orbit177
Epoch Day267.58334491
Epoch Year2020
RAAN330.2803
Inclination53.0006
Eccentricity8.68E-05
Argument of Perigee33.5753
Mean Anonmoly233.2979
Mean Motion15.62701553
Decay Rate0.00061179
L11 46362U 20062AP 20267.58334491 .00061179 00000-0 67028-3 0 9995
L22 46362 53.0006 330.2803 0000868 33.5753 233.2979 15.62701553 1779

Live tracking and technical data element details for STARLINK-1726 (NORAD 46362). STARLINK-1726 can be tracked NOW for your location showing map with azimuth and elevation plus other details from your city location.

Track the satellite on the map from your city or location and see movement details for azimuth, elevation, latitude, longitude, range, height, and movement on the map or in text.







IsCatalogInMostPopularTable: catalog: 46362, numindb: 1
Update: records affected: 1



GetName: 46362 STARLINK-1726

Hit Count: updated at: Thu, 24 Sep 2020 17:47:36 GMT